Flag for U.S.A. Weather past 2 weeks in Independence, Missouri, U.S.A.

Now
69 °F

Clear.


Feels Like: 69 °F
Forecast: 59 / 72 °F
Wind: 15 mph from Northeast

Location: Lee's Summit Municipal Airport

Current Time: Sep 21, 2014 at 4:13:10 AM

Latest Report: Sep 21, 2014 at 2:53 AM


Visibility: 10 mi

Pressure: 30.03 "Hg

Humidity: 79%

Dew point: 62 °F

Location of IndependenceLocation

Historic Weather in Independence — Graph

°F

Independence temperature yesterday

Maximum temperature yesterday: 83 °F (at 12:53 PM)
Minimum temperature yesterday: 67 °F (at 3:53 AM)
Average temperature yesterday: 74 °F

Past Weeks' High & Low Weather Summary

 TemperatureHumidityPressure
High90 °F (Sep 9, 4:53 PM)100% (Sep 21, 1:53 AM)30.43 "Hg (Sep 21, 1:53 AM)
Low39 °F (Sep 13, 4:59 AM)41% (Sep 13, 3:53 PM)29.53 "Hg (Sep 10, 12:53 AM)
Average65 °F78%30.07 "Hg
* Reported Sep 6 2:53 AM — Sep 21 2:53 AM, Independence, Weather by CustomWeather, © 2014

Note: Actual official high and low records may vary slightly from our data, if they occured in-between our weather recording intervals... More about our weather records

Advertising

Independence weather history for previous 24 hours

 ConditionsComfort  
Time TempWeatherWind HumidityBarometerVisibility
2:53 AM
Sep 21
69 °FClear.15 mph79%30.03 "Hg10 mi
2:02 AM67 °FFog.6 mph97%30.01 "Hg2 mi
1:53 AM66 °FFog.6 mph100%29.98 "Hg1 mi
12:53 AM68 °FClear.6 mph96%29.97 "Hg7 mi
11:53 PM
Sep 20
70 °FClear.6 mph93%29.98 "Hg9 mi
10:53 PM71 °FPassing clouds.5 mph93%29.97 "Hg9 mi
9:53 PM74 °FOvercast.No wind88%29.96 "Hg10 mi
8:53 PM73 °FPassing clouds.3 mph90%29.95 "Hg10 mi
7:53 PM76 °FSunny.8 mph82%29.92 "Hg10 mi
6:53 PM78 °FSunny.7 mph76%29.91 "Hg10 mi
5:53 PM80 °FSunny.8 mph69%29.91 "Hg10 mi
4:53 PM80 °FSunny.8 mph71%29.93 "Hg10 mi
3:53 PM82 °FSunny.8 mph67%29.92 "Hg10 mi
2:53 PM81 °FPassing clouds.8 mph67%29.93 "Hg10 mi
1:53 PM83 °FSunny.21 mph63%29.91 "Hg10 mi
12:53 PM83 °FPassing clouds.16 mph65%29.96 "Hg10 mi
7:53 AM68 °FFog.7 mph93%29.98 "Hg3 mi
6:53 AM68 °FFog.12 mph93%29.95 "Hg5 mi
5:53 AM68 °FFog.9 mph93%29.93 "Hg5 mi
4:53 AM68 °FFog.10 mph93%29.93 "Hg5 mi
Weather by CustomWeather, © 2014

See weather overviewHow to use our weather pages